| time (UTC) | temp F | wind direction | speed MPH | gust MPH | rain 1hr in | rain 24hr in | rain mn in | humidity % | barometer mb |
| 20260505075417 | 53 | 216 | 0.0 | 0.0 | 0.00 | 0.00 | 0.00 | 89 | 1013.7 |
| 20260505074915 | 53 | 234 | 0.0 | 0.0 | 0.00 | 0.00 | 0.00 | 89 | 1013.3 |
| 20260505074412 | 54 | 180 | 0.0 | 0.0 | 0.00 | 0.00 | 0.00 | 89 | 1013.3 |
| 20260505073909 | 54 | 235 | 3.0 | 3.0 | 0.00 | 0.00 | 0.00 | 89 | 1013.3 |
| 20260505073407 | 54 | 228 | 1.0 | 1.0 | 0.00 | 0.00 | 0.00 | 89 | 1013.3 |
| 20260505072904 | 54 | 216 | 0.0 | 0.0 | 0.00 | 0.00 | 0.00 | 89 | 1013.3 |
| 20260505072400 | 54 | 210 | 0.0 | 0.0 | 0.00 | 0.00 | 0.00 | 89 | 1013.3 |
| 20260505071856 | 54 | 210 | 4.0 | 4.0 | 0.00 | 0.00 | 0.00 | 88 | 1013.3 |
| 20260505071352 | 54 | 210 | 0.0 | 0.0 | 0.00 | 0.00 | 0.00 | 89 | 1013.3 |
| 20260505070851 | 54 | 154 | 0.0 | 0.0 | 0.00 | 0.00 | 0.00 | 89 | 1013.3 |
| 20260505070347 | 54 | 150 | 2.0 | 2.0 | 0.00 | 0.00 | 0.00 | 89 | 1013.3 |
| 20260505065842 | 54 | 222 | 0.0 | 0.0 | 0.00 | 0.00 | 0.00 | 88 | 1013.3 |
| 20260505065339 | 54 | 174 | 2.0 | 2.0 | 0.00 | 0.00 | 0.00 | 89 | 1013.3 |
| 20260505064836 | 54 | 204 | 0.0 | 0.0 | 0.00 | 0.00 | 0.00 | 88 | 1013.3 |
| 20260505064333 | 54 | 222 | 5.0 | 5.0 | 0.00 | 0.00 | 0.00 | 88 | 1013.3 |
| 20260505063832 | 54 | 246 | 2.0 | 2.0 | 0.00 | 0.00 | 0.00 | 88 | 1013.0 |
| 20260505063327 | 54 | 216 | 3.0 | 4.0 | 0.00 | 0.00 | 0.00 | 88 | 1013.0 |
| 20260505062824 | 54 | 222 | 7.0 | 8.0 | 0.00 | 0.00 | 0.00 | 88 | 1013.0 |
| 20260505062321 | 55 | 246 | 3.0 | 3.0 | 0.00 | 0.00 | 0.00 | 88 | 1012.7 |
| 20260505061818 | 55 | 258 | 5.0 | 6.0 | 0.00 | 0.00 | 0.00 | 87 | 1012.7 |
| 20260505061316 | 55 | 216 | 7.0 | 8.0 | 0.00 | 0.00 | 0.00 | 87 | 1012.7 |
| 20260505060813 | 55 | 234 | 9.0 | 10.0 | 0.00 | 0.00 | 0.00 | 87 | 1012.7 |
| 20260505060310 | 55 | 216 | 8.0 | 8.0 | 0.00 | 0.00 | 0.00 | 87 | 1012.3 |
| 20260505055806 | 55 | 204 | 7.0 | 7.0 | 0.00 | 0.00 | 0.00 | 87 | 1012.3 |
| 20260505055303 | 55 | 264 | 3.0 | 4.0 | 0.00 | 0.00 | 0.00 | 87 | 1012.7 |
| 20260505054800 | 55 | 258 | 5.0 | 5.0 | 0.00 | 0.00 | 0.00 | 87 | 1012.7 |
| 20260505054257 | 55 | 234 | 4.0 | 5.0 | 0.00 | 0.00 | 0.00 | 86 | 1012.3 |
| 20260505053755 | 55 | 216 | 5.0 | 5.0 | 0.00 | 0.00 | 0.00 | 87 | 1012.7 |
| 20260505053252 | 55 | 210 | 4.0 | 5.0 | 0.00 | 0.00 | 0.00 | 86 | 1012.7 |
| 20260505052749 | 55 | 198 | 3.0 | 3.0 | 0.00 | 0.00 | 0.00 | 86 | 1012.7 |
| 20260505052246 | 55 | 186 | 5.0 | 5.0 | 0.00 | 0.00 | 0.00 | 86 | 1012.3 |
| 20260505051742 | 55 | 198 | 2.0 | 2.0 | 0.00 | 0.00 | 0.00 | 86 | 1012.3 |
| 20260505051240 | 56 | 222 | 2.0 | 2.0 | 0.00 | 0.00 | 0.00 | 86 | 1012.7 |
| 20260505050738 | 56 | 192 | 3.0 | 3.0 | 0.00 | 0.00 | 0.00 | 85 | 1012.0 |
| 20260505050237 | 56 | 229 | 6.0 | 6.0 | 0.00 | 0.00 | 0.00 | 85 | 1012.0 |
| 20260505041706 | 57 | 222 | 4.0 | 4.0 | 0.00 | 0.00 | 0.00 | 82 | 1011.6 |
| 20260505041203 | 57 | 222 | 4.0 | 5.0 | 0.00 | 0.00 | 0.00 | 82 | 1011.6 |
| 20260505040701 | 58 | 222 | 4.0 | 4.0 | 0.00 | 0.00 | 0.00 | 82 | 1011.6 |
| 20260505040158 | 58 | 223 | 3.0 | 4.0 | 0.00 | 0.00 | 0.00 | 81 | 1011.6 |
| 20260505035654 | 58 | 218 | 4.0 | 4.0 | 0.00 | 0.00 | 0.00 | 80 | 1011.6 |
| 20260505035150 | 58 | 234 | 4.0 | 4.0 | 0.00 | 0.00 | 0.00 | 80 | 1011.6 |
| 20260505034647 | 59 | 234 | 6.0 | 6.0 | 0.00 | 0.00 | 0.00 | 79 | 1011.3 |
| 20260505034144 | 59 | 234 | 3.0 | 3.0 | 0.00 | 0.00 | 0.00 | 79 | 1011.3 |
| 20260505033640 | 60 | 228 | 2.0 | 2.0 | 0.00 | 0.00 | 0.00 | 78 | 1011.3 |
| 20260505033139 | 60 | 250 | 5.0 | 6.0 | 0.00 | 0.00 | 0.00 | 77 | 1011.3 |
| 20260505032636 | 60 | 252 | 5.0 | 6.0 | 0.00 | 0.00 | 0.00 | 77 | 1011.3 |
| 20260505032127 | 61 | 252 | 5.0 | 6.0 | 0.00 | 0.00 | 0.00 | 75 | 1011.3 |
| 20260505031624 | 61 | 258 | 6.0 | 6.0 | 0.00 | 0.00 | 0.00 | 75 | 1011.3 |
| 20260505031120 | 62 | 263 | 6.0 | 6.0 | 0.00 | 0.00 | 0.00 | 74 | 1011.0 |
| 20260505030618 | 62 | 249 | 8.0 | 10.0 | 0.00 | 0.00 | 0.00 | 73 | 1011.3 |
| 20260505030113 | 63 | 269 | 5.0 | 6.0 | 0.00 | 0.00 | 0.00 | 72 | 1011.0 |
| 20260505025609 | 63 | 259 | 8.0 | 9.0 | 0.00 | 0.00 | 0.00 | 71 | 1011.0 |
| 20260505025108 | 63 | 251 | 6.0 | 6.0 | 0.00 | 0.00 | 0.00 | 71 | 1011.0 |
| 20260505024605 | 64 | 212 | 6.0 | 6.0 | 0.00 | 0.00 | 0.00 | 69 | 1010.6 |
| 20260505024103 | 65 | 283 | 10.0 | 11.0 | 0.00 | 0.00 | 0.00 | 68 | 1010.6 |
| 20260505023600 | 65 | 234 | 6.0 | 6.0 | 0.00 | 0.00 | 0.00 | 67 | 1011.0 |
| 20260505023057 | 66 | 258 | 11.0 | 12.0 | 0.00 | 0.00 | 0.00 | 67 | 1010.6 |
| 20260505022554 | 66 | 270 | 6.0 | 6.0 | 0.00 | 0.00 | 0.00 | 66 | 1010.6 |
| 20260505022051 | 67 | 222 | 9.0 | 10.0 | 0.00 | 0.00 | 0.00 | 65 | 1010.6 |
| 20260505021548 | 67 | 262 | 6.0 | 6.0 | 0.00 | 0.00 | 0.00 | 65 | 1010.6 |
| 20260505021045 | 68 | 234 | 3.0 | 4.0 | 0.00 | 0.00 | 0.00 | 63 | 1010.6 |
| 20260505020544 | 68 | 236 | 5.0 | 5.0 | 0.00 | 0.00 | 0.00 | 64 | 1010.6 |
| 20260505020042 | 68 | 246 | 6.0 | 6.0 | 0.00 | 0.00 | 0.00 | 63 | 1010.6 |
| 20260505015539 | 68 | 260 | 9.0 | 10.0 | 0.00 | 0.00 | 0.00 | 63 | 1010.6 |
| 20260505015035 | 69 | 262 | 5.0 | 6.0 | 0.00 | 0.00 | 0.00 | 62 | 1010.6 |
| 20260505014532 | 69 | 249 | 8.0 | 9.0 | 0.00 | 0.00 | 0.00 | 62 | 1010.6 |
| 20260505014030 | 69 | 228 | 6.0 | 6.0 | 0.00 | 0.00 | 0.00 | 62 | 1010.6 |
| 20260505013527 | 69 | 266 | 9.0 | 10.0 | 0.00 | 0.00 | 0.00 | 62 | 1010.6 |
| 20260505013024 | 70 | 231 | 5.0 | 6.0 | 0.00 | 0.00 | 0.00 | 61 | 1010.6 |
| 20260505012522 | 70 | 254 | 7.0 | 8.0 | 0.00 | 0.00 | 0.00 | 61 | 1010.6 |
| 20260505012019 | 70 | 246 | 6.0 | 6.0 | 0.00 | 0.00 | 0.00 | 60 | 1010.6 |
| 20260505011514 | 70 | 267 | 6.0 | 7.0 | 0.00 | 0.00 | 0.00 | 60 | 1010.3 |
| 20260505011011 | 71 | 252 | 5.0 | 6.0 | 0.00 | 0.00 | 0.00 | 58 | 1010.6 |
| 20260505010507 | 72 | 259 | 5.0 | 6.0 | 0.00 | 0.00 | 0.00 | 56 | 1010.6 |
| 20260505010004 | 73 | 272 | 6.0 | 7.0 | 0.00 | 0.00 | 0.00 | 57 | 1010.3 |
| 20260505005500 | 72 | 226 | 7.0 | 7.0 | 0.00 | 0.00 | 0.00 | 56 | 1010.3 |
| 20260505004958 | 73 | 264 | 6.0 | 6.0 | 0.00 | 0.00 | 0.00 | 57 | 1010.3 |
| 20260505004454 | 74 | 233 | 5.0 | 6.0 | 0.00 | 0.00 | 0.00 | 56 | 1010.6 |
| 20260505003951 | 73 | 282 | 5.0 | 6.0 | 0.00 | 0.00 | 0.00 | 57 | 1010.6 |
| 20260505003448 | 74 | 210 | 2.0 | 2.0 | 0.00 | 0.00 | 0.00 | 56 | 1010.3 |
| 20260505002944 | 74 | 249 | 6.0 | 6.0 | 0.00 | 0.00 | 0.00 | 56 | 1010.6 |
| 20260505002441 | 74 | 246 | 6.0 | 6.0 | 0.00 | 0.00 | 0.00 | 57 | 1010.3 |
| 20260505001939 | 75 | 254 | 10.0 | 11.0 | 0.00 | 0.00 | 0.00 | 55 | 1010.3 |
| 20260505001436 | 75 | 286 | 6.0 | 7.0 | 0.00 | 0.00 | 0.00 | 56 | 1010.3 |
| 20260505000933 | 74 | 254 | 7.0 | 7.0 | 0.00 | 0.00 | 0.00 | 56 | 1010.3 |
| 20260505000431 | 75 | 210 | 4.0 | 4.0 | 0.00 | 0.00 | 0.00 | 54 | 1010.3 |
| 20260504235928 | 75 | 258 | 6.0 | 7.0 | 0.00 | 0.00 | 0.00 | 54 | 1010.3 |
| 20260504235425 | 75 | 210 | 7.0 | 7.0 | 0.00 | 0.00 | 0.00 | 53 | 1010.3 |
| 20260504234921 | 75 | 264 | 3.0 | 3.0 | 0.00 | 0.00 | 0.00 | 55 | 1010.3 |
| 20260504234419 | 75 | 220 | 4.0 | 4.0 | 0.00 | 0.00 | 0.00 | 54 | 1010.3 |
| 20260504233915 | 76 | 210 | 5.0 | 5.0 | 0.00 | 0.00 | 0.00 | 54 | 1010.3 |
| 20260504233411 | 75 | 255 | 4.0 | 5.0 | 0.00 | 0.00 | 0.00 | 55 | 1010.3 |
| 20260504232908 | 75 | 252 | 4.0 | 5.0 | 0.00 | 0.00 | 0.00 | 56 | 1010.6 |
| 20260504232405 | 74 | 258 | 6.0 | 6.0 | 0.00 | 0.00 | 0.00 | 57 | 1010.3 |
| 20260504231902 | 74 | 264 | 7.0 | 7.0 | 0.00 | 0.00 | 0.00 | 56 | 1010.6 |
| 20260504231358 | 73 | 239 | 5.0 | 6.0 | 0.00 | 0.00 | 0.00 | 58 | 1011.0 |
| 20260504230855 | 74 | 270 | 7.0 | 8.0 | 0.00 | 0.00 | 0.00 | 57 | 1010.6 |
| 20260504230352 | 74 | 258 | 3.0 | 3.0 | 0.00 | 0.00 | 0.00 | 57 | 1011.0 |
| 20260504225851 | 75 | 216 | 5.0 | 6.0 | 0.00 | 0.00 | 0.00 | 56 | 1010.6 |
| 20260504225347 | 74 | 239 | 6.0 | 6.0 | 0.00 | 0.00 | 0.00 | 57 | 1011.0 |
| 20260504224845 | 74 | 291 | 5.0 | 6.0 | 0.00 | 0.00 | 0.00 | 55 | 1010.6 |
| 20260504224341 | 73 | 288 | 4.0 | 4.0 | 0.00 | 0.00 | 0.00 | 58 | 1011.0 |
| 20260504223838 | 73 | 258 | 7.0 | 8.0 | 0.00 | 0.00 | 0.00 | 58 | 1011.0 |
| 20260504223333 | 73 | 237 | 7.0 | 7.0 | 0.00 | 0.00 | 0.00 | 58 | 1011.0 |
| 20260504222830 | 73 | 275 | 7.0 | 7.0 | 0.00 | 0.00 | 0.00 | 58 | 1011.3 |
| 20260504222327 | 74 | 264 | 9.0 | 10.0 | 0.00 | 0.00 | 0.00 | 57 | 1011.3 |
| 20260504221826 | 73 | 218 | 6.0 | 6.0 | 0.00 | 0.00 | 0.00 | 58 | 1011.0 |
| 20260504221322 | 73 | 248 | 6.0 | 6.0 | 0.00 | 0.00 | 0.00 | 60 | 1011.0 |
| 20260504220819 | 73 | 260 | 7.0 | 7.0 | 0.00 | 0.00 | 0.00 | 60 | 1011.3 |
| 20260504220316 | 72 | 266 | 6.0 | 7.0 | 0.00 | 0.00 | 0.00 | 60 | 1011.3 |
| 20260504215813 | 72 | 239 | 6.0 | 6.0 | 0.00 | 0.00 | 0.00 | 61 | 1011.3 |
| 20260504215309 | 73 | 240 | 4.0 | 4.0 | 0.00 | 0.00 | 0.00 | 62 | 1011.3 |
| 20260504214805 | 72 | 269 | 5.0 | 5.0 | 0.00 | 0.00 | 0.00 | 63 | 1011.3 |
| 20260504214303 | 73 | 272 | 5.0 | 6.0 | 0.00 | 0.00 | 0.00 | 59 | 1011.3 |
| 20260504213759 | 72 | 281 | 7.0 | 7.0 | 0.00 | 0.00 | 0.00 | 62 | 1011.3 |
| 20260504213255 | 71 | 240 | 5.0 | 6.0 | 0.00 | 0.00 | 0.00 | 62 | 1011.3 |
| 20260504212753 | 71 | 252 | 5.0 | 6.0 | 0.00 | 0.00 | 0.00 | 62 | 1011.3 |
| 20260504212249 | 72 | 264 | 9.0 | 9.0 | 0.00 | 0.00 | 0.00 | 62 | 1011.6 |
| 20260504211746 | 71 | 263 | 9.0 | 9.0 | 0.00 | 0.00 | 0.00 | 62 | 1011.3 |
| 20260504211242 | 71 | 248 | 6.0 | 7.0 | 0.00 | 0.00 | 0.00 | 62 | 1011.3 |
| 20260504210740 | 72 | 300 | 5.0 | 6.0 | 0.00 | 0.00 | 0.00 | 62 | 1011.6 |
| 20260504210237 | 71 | 274 | 7.0 | 7.0 | 0.00 | 0.00 | 0.00 | 62 | 1011.6 |
| 20260504205734 | 72 | 219 | 4.0 | 4.0 | 0.00 | 0.00 | 0.00 | 62 | 1011.6 |
| 20260504205232 | 72 | 272 | 5.0 | 5.0 | 0.00 | 0.00 | 0.00 | 63 | 1011.6 |
| 20260504204730 | 71 | 258 | 4.0 | 4.0 | 0.00 | 0.00 | 0.00 | 62 | 1011.6 |
| 20260504204228 | 71 | 252 | 7.0 | 7.0 | 0.00 | 0.00 | 0.00 | 63 | 1011.6 |
| 20260504203727 | 72 | 229 | 8.0 | 9.0 | 0.00 | 0.00 | 0.00 | 62 | 1011.6 |
| 20260504203224 | 72 | 275 | 4.0 | 5.0 | 0.00 | 0.00 | 0.00 | 61 | 1011.6 |
| 20260504202723 | 71 | 210 | 2.0 | 2.0 | 0.00 | 0.00 | 0.00 | 63 | 1012.0 |
| 20260504202221 | 71 | 224 | 8.0 | 8.0 | 0.00 | 0.00 | 0.00 | 62 | 1011.6 |
| 20260504201718 | 70 | 224 | 4.0 | 5.0 | 0.00 | 0.00 | 0.00 | 60 | 1011.6 |
| 20260504201215 | 70 | 255 | 6.0 | 6.0 | 0.00 | 0.00 | 0.00 | 64 | 1011.6 |
| 20260504200713 | 70 | 252 | 7.0 | 7.0 | 0.00 | 0.00 | 0.00 | 64 | 1012.0 |
| 20260504200209 | 69 | 222 | 5.0 | 5.0 | 0.00 | 0.00 | 0.00 | 65 | 1012.0 |
| 20260504195705 | 70 | 218 | 4.0 | 4.0 | 0.00 | 0.00 | 0.00 | 65 | 1012.0 |
| 20260504195201 | 69 | 216 | 3.0 | 3.0 | 0.00 | 0.00 | 0.00 | 64 | 1012.0 |
| 20260504194658 | 70 | 219 | 3.0 | 3.0 | 0.00 | 0.00 | 0.00 | 62 | 1011.6 |
| 20260504194154 | 69 | 244 | 7.0 | 7.0 | 0.00 | 0.00 | 0.00 | 63 | 1012.0 |
| 20260504193651 | 69 | 210 | 4.0 | 4.0 | 0.00 | 0.00 | 0.00 | 63 | 1012.0 |
| 20260504193149 | 69 | 219 | 4.0 | 4.0 | 0.00 | 0.00 | 0.00 | 64 | 1012.0 |
| 20260504192646 | 69 | 216 | 7.0 | 7.0 | 0.00 | 0.00 | 0.00 | 67 | 1012.0 |
| 20260504192144 | 69 | 269 | 7.0 | 8.0 | 0.00 | 0.00 | 0.00 | 66 | 1012.0 |
| 20260504191643 | 68 | 210 | 5.0 | 5.0 | 0.00 | 0.00 | 0.00 | 65 | 1012.0 |
| 20260504191138 | 68 | 276 | 3.0 | 3.0 | 0.00 | 0.00 | 0.00 | 65 | 1012.0 |
| 20260504190634 | 67 | 133 | 4.0 | 4.0 | 0.00 | 0.00 | 0.00 | 67 | 1012.3 |
| 20260504190131 | 67 | 270 | 5.0 | 6.0 | 0.00 | 0.00 | 0.00 | 66 | 1012.3 |
| 20260504185628 | 67 | 234 | 7.0 | 7.0 | 0.00 | 0.00 | 0.00 | 66 | 1012.7 |
| 20260504185125 | 67 | 258 | 6.0 | 6.0 | 0.00 | 0.00 | 0.00 | 67 | 1012.3 |
| 20260504184620 | 67 | 258 | 7.0 | 7.0 | 0.00 | 0.00 | 0.00 | 66 | 1012.3 |
| 20260504184115 | 66 | 263 | 7.0 | 7.0 | 0.00 | 0.00 | 0.00 | 67 | 1012.3 |
| 20260504183613 | 65 | 270 | 7.0 | 7.0 | 0.00 | 0.00 | 0.00 | 68 | 1012.3 |
| 20260504183111 | 66 | 258 | 7.0 | 7.0 | 0.00 | 0.00 | 0.00 | 69 | 1012.3 |
| 20260504182608 | 65 | 260 | 8.0 | 8.0 | 0.00 | 0.00 | 0.00 | 70 | 1012.3 |
| 20260504182105 | 65 | 216 | 7.0 | 8.0 | 0.00 | 0.00 | 0.00 | 69 | 1012.7 |
| 20260504181602 | 66 | 248 | 10.0 | 11.0 | 0.00 | 0.00 | 0.00 | 68 | 1012.3 |
| 20260504181100 | 65 | 246 | 3.0 | 3.0 | 0.00 | 0.00 | 0.00 | 69 | 1012.7 |
| 20260504180559 | 64 | 240 | 6.0 | 6.0 | 0.00 | 0.00 | 0.00 | 70 | 1012.3 |
| 20260504180057 | 64 | 260 | 8.0 | 8.0 | 0.00 | 0.00 | 0.00 | 70 | 1012.3 |
| 20260504175554 | 65 | 216 | 4.0 | 4.0 | 0.00 | 0.00 | 0.00 | 66 | 1012.7 |
| 20260504175051 | 64 | 216 | 2.0 | 2.0 | 0.00 | 0.00 | 0.00 | 69 | 1012.3 |
| 20260504174549 | 64 | 216 | 2.0 | 2.0 | 0.00 | 0.00 | 0.00 | 69 | 1012.3 |
| 20260504174045 | 63 | 222 | 2.0 | 2.0 | 0.00 | 0.00 | 0.00 | 69 | 1012.3 |
| 20260504173542 | 63 | 230 | 7.0 | 7.0 | 0.00 | 0.00 | 0.00 | 70 | 1012.3 |
| 20260504173040 | 64 | 162 | 8.0 | 9.0 | 0.00 | 0.00 | 0.00 | 67 | 1012.3 |
| 20260504172536 | 63 | 228 | 3.0 | 3.0 | 0.00 | 0.00 | 0.00 | 71 | 1012.3 |
| 20260504172033 | 62 | 240 | 9.0 | 10.0 | 0.00 | 0.00 | 0.00 | 71 | 1012.0 |
| 20260504171529 | 62 | 217 | 6.0 | 7.0 | 0.00 | 0.00 | 0.00 | 72 | 1012.7 |
| 20260504171026 | 62 | 216 | 5.0 | 6.0 | 0.00 | 0.00 | 0.00 | 72 | 1012.7 |
| 20260504170522 | 62 | 210 | 5.0 | 5.0 | 0.00 | 0.00 | 0.00 | 72 | 1012.3 |
| 20260504160443 | 60 | 261 | 3.0 | 3.0 | 0.00 | 0.00 | 0.00 | 74 | 1012.0 |
| 20260504150906 | 59 | 264 | 4.0 | 4.0 | 0.00 | 0.00 | 0.00 | 76 | 1011.3 |
| 20260504150403 | 58 | 240 | 0.0 | 0.0 | 0.00 | 0.00 | 0.00 | 77 | 1011.3 |
| 20260504141333 | 53 | 222 | 0.0 | 0.0 | 0.00 | 0.00 | 0.00 | 81 | 1011.3 |
| 20260504140829 | 52 | 217 | 0.0 | 0.0 | 0.00 | 0.00 | 0.00 | 84 | 1011.3 |
| 20260504140325 | 51 | 8 | 0.0 | 0.0 | 0.00 | 0.00 | 0.00 | 88 | 1011.0 |
| 20260504130754 | 48 | 11 | 0.0 | 0.0 | 0.00 | 0.00 | 0.00 | 91 | 1010.6 |
| 20260504130250 | 48 | 11 | 0.0 | 0.0 | 0.00 | 0.00 | 0.00 | 90 | 1010.3 |
| 20260504120214 | 47 | 11 | 0.0 | 0.0 | 0.00 | 0.00 | 0.00 | 88 | 1010.3 |
| 20260504110641 | 49 | 11 | 0.0 | 0.0 | 0.00 | 0.00 | 0.00 | 87 | 1010.3 |
| 20260504110137 | 49 | 11 | 0.0 | 0.0 | 0.00 | 0.00 | 0.00 | 85 | 1009.9 |
| 20260504100603 | 51 | 11 | 0.0 | 0.0 | 0.00 | 0.00 | 0.00 | 82 | 1009.9 |
| 20260504081957 | 54 | 11 | 0.0 | 0.0 | 0.00 | 0.00 | 0.00 | 76 | 1009.9 |
| 20260504081454 | 55 | 11 | 0.0 | 0.0 | 0.00 | 0.00 | 0.00 | 76 | 1009.9 |
| 20260504080949 | 54 | 11 | 0.0 | 0.0 | 0.00 | 0.00 | 0.00 | 75 | 1009.9 |
| 20260504080446 | 54 | 11 | 0.0 | 0.0 | 0.00 | 0.00 | 0.00 | 74 | 1010.3 |